Time,TemperatureF,DewpointF,PressureIn,WindDirection,WindDirectionDegrees,WindSpeedMPH,WindSpeedGustMPH,Humidity,HourlyPrecipIn,Conditions,Clouds,dailyrainin,SoftwareType,DateUTC
2013-02-03 00:02:00,41.0,29.0,30.06,North,-999,-999.0,-999.0,61,-99.99,,,-99.99,,2013-02-03 06:02:00,
2013-02-03 00:11:00,41.0,29.0,30.06,North,-999,-999.0,-999.0,60,-99.99,,,-99.99,,2013-02-03 06:11:00,
2013-02-03 00:21:00,41.0,29.0,30.06,North,-999,-999.0,-999.0,60,-99.99,,,-99.99,,2013-02-03 06:21:00,
2013-02-03 00:32:00,42.0,28.0,30.06,North,-999,-999.0,-999.0,58,-99.99,,,-99.99,,2013-02-03 06:32:00,
2013-02-03 00:42:00,42.0,28.0,30.06,North,-999,-999.0,-999.0,57,-99.99,,,-99.99,,2013-02-03 06:42:00,
2013-02-03 00:52:00,42.0,28.0,30.06,North,-999,-999.0,-999.0,57,-99.99,,,-99.99,,2013-02-03 06:52:00,
2013-02-03 01:01:00,42.0,29.0,30.06,North,-999,-999.0,-999.0,58,-99.99,,,-99.99,,2013-02-03 07:01:00,
2013-02-03 01:11:00,42.0,28.0,30.08,North,-999,-999.0,-999.0,56,-99.99,,,-99.99,,2013-02-03 07:11:00,
2013-02-03 01:21:00,42.0,28.0,30.08,North,-999,-999.0,-999.0,56,-99.99,,,-99.99,,2013-02-03 07:21:00,
2013-02-03 01:31:00,43.0,27.0,30.09,North,-999,-999.0,-999.0,53,-99.99,,,-99.99,,2013-02-03 07:31:00,
2013-02-03 01:42:00,43.0,27.0,30.09,North,-999,-999.0,-999.0,54,-99.99,,,-99.99,,2013-02-03 07:42:00,
2013-02-03 01:52:00,43.0,27.0,30.09,North,-999,-999.0,-999.0,54,-99.99,,,-99.99,,2013-02-03 07:52:00,
2013-02-03 02:01:00,42.0,28.0,30.09,North,-999,-999.0,-999.0,56,-99.99,,,-99.99,,2013-02-03 08:01:00,
2013-02-03 02:11:00,42.0,28.0,30.09,North,-999,-999.0,-999.0,57,-99.99,,,-99.99,,2013-02-03 08:11:00,
2013-02-03 02:22:00,42.0,28.0,30.09,North,-999,-999.0,-999.0,57,-99.99,,,-99.99,,2013-02-03 08:22:00,
2013-02-03 02:32:00,40.0,28.0,30.09,North,-999,-999.0,-999.0,60,-99.99,,,-99.99,,2013-02-03 08:32:00,
2013-02-03 02:41:00,40.0,27.0,30.09,North,-999,-999.0,-999.0,60,-99.99,,,-99.99,,2013-02-03 08:41:00,
2013-02-03 02:52:00,40.0,27.0,30.09,North,-999,-999.0,-999.0,60,-99.99,,,-99.99,,2013-02-03 08:52:00,
2013-02-03 03:02:00,40.0,28.0,30.10,North,-999,-999.0,-999.0,61,-99.99,,,-99.99,,2013-02-03 09:02:00,
2013-02-03 03:11:00,40.0,27.0,30.10,North,-999,-999.0,-999.0,60,-99.99,,,-99.99,,2013-02-03 09:11:00,
2013-02-03 03:21:00,40.0,27.0,30.10,North,-999,-999.0,-999.0,60,-99.99,,,-99.99,,2013-02-03 09:21:00,
2013-02-03 03:31:00,39.0,27.0,30.10,North,-999,-999.0,-999.0,61,-99.99,,,-99.99,,2013-02-03 09:31:00,
2013-02-03 03:42:00,39.0,27.0,30.10,North,-999,-999.0,-999.0,62,-99.99,,,-99.99,,2013-02-03 09:42:00,
2013-02-03 03:51:00,39.0,27.0,30.10,North,-999,-999.0,-999.0,62,-99.99,,,-99.99,,2013-02-03 09:51:00,
2013-02-03 04:01:00,39.0,27.0,30.10,North,-999,-999.0,-999.0,63,-99.99,,,-99.99,,2013-02-03 10:01:00,
2013-02-03 04:11:00,38.0,27.0,30.10,North,-999,-999.0,-999.0,63,-99.99,,,-99.99,,2013-02-03 10:11:00,
2013-02-03 04:21:00,38.0,27.0,30.10,North,-999,-999.0,-999.0,63,-99.99,,,-99.99,,2013-02-03 10:21:00,
2013-02-03 04:31:00,38.0,27.0,30.10,North,-999,-999.0,-999.0,64,-99.99,,,-99.99,,2013-02-03 10:31:00,
2013-02-03 04:42:00,37.0,27.0,30.10,North,-999,-999.0,-999.0,65,-99.99,,,-99.99,,2013-02-03 10:42:00,
2013-02-03 04:52:00,37.0,27.0,30.10,North,-999,-999.0,-999.0,65,-99.99,,,-99.99,,2013-02-03 10:52:00,
2013-02-03 05:02:00,37.0,27.0,30.10,North,-999,-999.0,-999.0,66,-99.99,,,-99.99,,2013-02-03 11:02:00,
2013-02-03 05:11:00,37.0,27.0,30.10,North,-999,-999.0,-999.0,66,-99.99,,,-99.99,,2013-02-03 11:11:00,
2013-02-03 05:22:00,37.0,27.0,30.10,North,-999,-999.0,-999.0,66,-99.99,,,-99.99,,2013-02-03 11:22:00,
2013-02-03 05:32:00,36.0,27.0,30.11,North,-999,-999.0,-999.0,67,-99.99,,,-99.99,,2013-02-03 11:32:00,
2013-02-03 05:42:00,36.0,26.0,30.11,North,-999,-999.0,-999.0,66,-99.99,,,-99.99,,2013-02-03 11:42:00,
2013-02-03 05:50:00,36.0,26.0,30.13,North,-999,-999.0,-999.0,68,-99.99,,,-99.99,,2013-02-03 11:50:00,
2013-02-03 05:52:00,36.0,26.0,30.11,North,-999,-999.0,-999.0,66,-99.99,,,-99.99,,2013-02-03 11:52:00,
2013-02-03 06:02:00,36.0,26.0,30.12,North,-999,-999.0,-999.0,66,-99.99,,,-99.99,,2013-02-03 12:02:00,
2013-02-03 06:11:00,36.0,26.0,30.12,North,-999,-999.0,-999.0,67,-99.99,,,-99.99,,2013-02-03 12:11:00,
2013-02-03 06:22:00,36.0,26.0,30.12,North,-999,-999.0,-999.0,67,-99.99,,,-99.99,,2013-02-03 12:22:00,
2013-02-03 06:32:00,36.0,26.0,30.13,North,-999,-999.0,-999.0,68,-99.99,,,-99.99,,2013-02-03 12:32:00,
2013-02-03 06:42:00,36.0,26.0,30.13,North,-999,-999.0,-999.0,68,-99.99,,,-99.99,,2013-02-03 12:42:00,
2013-02-03 07:03:00,36.0,25.0,30.13,North,-999,-999.0,-999.0,65,-99.99,,,-99.99,,2013-02-03 13:03:00,
2013-02-03 07:11:00,36.0,25.0,30.13,North,-999,-999.0,-999.0,65,-99.99,,,-99.99,,2013-02-03 13:11:00,
2013-02-03 07:21:00,36.0,25.0,30.13,North,-999,-999.0,-999.0,65,-99.99,,,-99.99,,2013-02-03 13:21:00,
2013-02-03 07:32:00,35.0,25.0,30.14,North,-999,-999.0,-999.0,66,-99.99,,,-99.99,,2013-02-03 13:32:00,
2013-02-03 07:42:00,35.0,25.0,30.14,North,-999,-999.0,-999.0,67,-99.99,,,-99.99,,2013-02-03 13:42:00,
2013-02-03 07:52:00,35.0,25.0,30.14,North,-999,-999.0,-999.0,67,-99.99,,,-99.99,,2013-02-03 13:52:00,
2013-02-03 08:02:00,34.0,25.0,30.15,North,-999,-999.0,-999.0,68,-99.99,,,-99.99,,2013-02-03 14:02:00,
2013-02-03 08:11:00,34.0,25.0,30.15,North,-999,-999.0,-999.0,67,-99.99,,,-99.99,,2013-02-03 14:11:00,
2013-02-03 08:20:00,36.0,25.0,30.18,North,-999,-999.0,-999.0,65,-99.99,,,-99.99,,2013-02-03 14:20:00,
2013-02-03 08:21:00,34.0,25.0,30.15,North,-999,-999.0,-999.0,67,-99.99,,,-99.99,,2013-02-03 14:21:00,
2013-02-03 08:32:00,35.0,25.0,30.16,North,-999,-999.0,-999.0,67,-99.99,,,-99.99,,2013-02-03 14:32:00,
2013-02-03 08:42:00,35.0,25.0,30.17,North,-999,-999.0,-999.0,67,-99.99,,,-99.99,,2013-02-03 14:42:00,
2013-02-03 08:52:00,35.0,25.0,30.17,North,-999,-999.0,-999.0,67,-99.99,,,-99.99,,2013-02-03 14:52:00,
2013-02-03 09:03:00,36.0,25.0,30.18,North,-999,-999.0,-999.0,65,-99.99,,,-99.99,,2013-02-03 15:03:00,
2013-02-03 09:11:00,36.0,25.0,30.18,North,-999,-999.0,-999.0,65,-99.99,,,-99.99,,2013-02-03 15:11:00,
2013-02-03 10:11:00,38.0,21.0,30.19,North,-999,-999.0,-999.0,50,-99.99,,,-99.99,,2013-02-03 16:11:00,
2013-02-03 10:22:00,38.0,21.0,30.19,North,-999,-999.0,-999.0,50,-99.99,,,-99.99,,2013-02-03 16:22:00,
2013-02-03 10:33:00,39.0,21.0,30.21,North,-999,-999.0,-999.0,49,-99.99,,,-99.99,,2013-02-03 16:33:00,
2013-02-03 10:42:00,39.0,22.0,30.21,North,-999,-999.0,-999.0,50,-99.99,,,-99.99,,2013-02-03 16:42:00,
2013-02-03 10:52:00,39.0,22.0,30.21,North,-999,-999.0,-999.0,50,-99.99,,,-99.99,,2013-02-03 16:52:00,
2013-02-03 11:02:00,40.0,19.0,30.22,North,-999,-999.0,-999.0,43,-99.99,,,-99.99,,2013-02-03 17:02:00,
2013-02-03 11:11:00,40.0,19.0,30.22,North,-999,-999.0,-999.0,42,-99.99,,,-99.99,,2013-02-03 17:11:00,
2013-02-03 11:22:00,40.0,19.0,30.22,North,-999,-999.0,-999.0,42,-99.99,,,-99.99,,2013-02-03 17:22:00,
2013-02-03 11:32:00,40.0,19.0,30.21,North,-999,-999.0,-999.0,42,-99.99,,,-99.99,,2013-02-03 17:32:00,
2013-02-03 11:42:00,41.0,20.0,30.21,North,-999,-999.0,-999.0,42,-99.99,,,-99.99,,2013-02-03 17:42:00,
2013-02-03 11:52:00,41.0,20.0,30.21,North,-999,-999.0,-999.0,42,-99.99,,,-99.99,,2013-02-03 17:52:00,
2013-02-03 12:03:00,42.0,19.0,30.21,North,-999,-999.0,-999.0,39,-99.99,,,-99.99,,2013-02-03 18:03:00,
2013-02-03 12:12:00,42.0,18.0,30.20,North,-999,-999.0,-999.0,38,-99.99,,,-99.99,,2013-02-03 18:12:00,
2013-02-03 12:23:00,42.0,18.0,30.20,North,-999,-999.0,-999.0,38,-99.99,,,-99.99,,2013-02-03 18:23:00,
2013-02-03 12:33:00,43.0,18.0,30.20,North,-999,-999.0,-999.0,36,-99.99,,,-99.99,,2013-02-03 18:33:00,
2013-02-03 12:42:00,44.0,18.0,30.19,North,-999,-999.0,-999.0,36,-99.99,,,-99.99,,2013-02-03 18:42:00,
2013-02-03 12:51:00,44.0,18.0,30.19,North,-999,-999.0,-999.0,36,-99.99,,,-99.99,,2013-02-03 18:51:00,
2013-02-03 13:02:00,44.0,19.0,30.19,North,-999,-999.0,-999.0,37,-99.99,,,-99.99,,2013-02-03 19:02:00,
2013-02-03 13:11:00,44.0,19.0,30.18,North,-999,-999.0,-999.0,36,-99.99,,,-99.99,,2013-02-03 19:11:00,
2013-02-03 13:22:00,44.0,19.0,30.18,North,-999,-999.0,-999.0,36,-99.99,,,-99.99,,2013-02-03 19:22:00,
2013-02-03 13:32:00,45.0,18.0,30.17,North,-999,-999.0,-999.0,34,-99.99,,,-99.99,,2013-02-03 19:32:00,
2013-02-03 13:42:00,45.0,18.0,30.16,North,-999,-999.0,-999.0,34,-99.99,,,-99.99,,2013-02-03 19:42:00,
2013-02-03 13:51:00,45.0,18.0,30.16,North,-999,-999.0,-999.0,34,-99.99,,,-99.99,,2013-02-03 19:51:00,
2013-02-03 14:01:00,46.0,19.0,30.15,North,-999,-999.0,-999.0,34,-99.99,,,-99.99,,2013-02-03 20:01:00,
2013-02-03 14:12:00,46.0,17.0,30.15,North,-999,-999.0,-999.0,31,-99.99,,,-99.99,,2013-02-03 20:12:00,
2013-02-03 14:21:00,46.0,17.0,30.15,North,-999,-999.0,-999.0,31,-99.99,,,-99.99,,2013-02-03 20:21:00,
2013-02-03 14:33:00,47.0,17.0,30.14,North,-999,-999.0,-999.0,30,-99.99,,,-99.99,,2013-02-03 20:33:00,
2013-02-03 14:42:00,47.0,19.0,30.14,North,-999,-999.0,-999.0,32,-99.99,,,-99.99,,2013-02-03 20:42:00,
2013-02-03 14:52:00,47.0,19.0,30.14,North,-999,-999.0,-999.0,32,-99.99,,,-99.99,,2013-02-03 20:52:00,
2013-02-03 15:03:00,47.0,18.0,30.13,North,-999,-999.0,-999.0,31,-99.99,,,-99.99,,2013-02-03 21:03:00,
2013-02-03 15:11:00,48.0,19.0,30.13,North,-999,-999.0,-999.0,31,-99.99,,,-99.99,,2013-02-03 21:11:00,
2013-02-03 15:21:00,48.0,19.0,30.13,North,-999,-999.0,-999.0,31,-99.99,,,-99.99,,2013-02-03 21:21:00,
2013-02-03 15:32:00,48.0,19.0,30.13,North,-999,-999.0,-999.0,31,-99.99,,,-99.99,,2013-02-03 21:32:00,
2013-02-03 15:42:00,49.0,21.0,30.13,North,-999,-999.0,-999.0,33,-99.99,,,-99.99,,2013-02-03 21:42:00,
2013-02-03 15:51:00,49.0,21.0,30.13,North,-999,-999.0,-999.0,33,-99.99,,,-99.99,,2013-02-03 21:51:00,
2013-02-03 16:01:00,49.0,22.0,30.12,North,-999,-999.0,-999.0,34,-99.99,,,-99.99,,2013-02-03 22:01:00,
2013-02-03 16:11:00,49.0,21.0,30.11,North,-999,-999.0,-999.0,33,-99.99,,,-99.99,,2013-02-03 22:11:00,
2013-02-03 16:21:00,49.0,21.0,30.11,North,-999,-999.0,-999.0,33,-99.99,,,-99.99,,2013-02-03 22:21:00,
2013-02-03 16:32:00,48.0,23.0,30.11,North,-999,-999.0,-999.0,36,-99.99,,,-99.99,,2013-02-03 22:32:00,
2013-02-03 16:42:00,48.0,21.0,30.10,North,-999,-999.0,-999.0,34,-99.99,,,-99.99,,2013-02-03 22:42:00,
2013-02-03 16:51:00,48.0,21.0,30.10,North,-999,-999.0,-999.0,34,-99.99,,,-99.99,,2013-02-03 22:51:00,
2013-02-03 17:01:00,48.0,20.0,30.09,North,-999,-999.0,-999.0,33,-99.99,,,-99.99,,2013-02-03 23:01:00,
2013-02-03 17:12:00,48.0,21.0,30.09,North,-999,-999.0,-999.0,34,-99.99,,,-99.99,,2013-02-03 23:12:00,
2013-02-03 17:22:00,48.0,21.0,30.09,North,-999,-999.0,-999.0,34,-99.99,,,-99.99,,2013-02-03 23:22:00,
2013-02-03 17:32:00,47.0,19.0,30.07,North,-999,-999.0,-999.0,32,-99.99,,,-99.99,,2013-02-03 23:32:00,
2013-02-03 17:42:00,47.0,19.0,30.06,North,-999,-999.0,-999.0,33,-99.99,,,-99.99,,2013-02-03 23:42:00,
2013-02-03 17:52:00,47.0,19.0,30.06,North,-999,-999.0,-999.0,33,-99.99,,,-99.99,,2013-02-03 23:52:00,
2013-02-03 18:00:00,43.0,19.0,30.05,North,-999,-999.0,-999.0,38,-99.99,,,-99.99,,2013-02-04 00:00:00,
2013-02-03 18:02:00,45.0,18.0,30.06,North,-999,-999.0,-999.0,34,-99.99,,,-99.99,,2013-02-04 00:02:00,
2013-02-03 18:11:00,45.0,19.0,30.06,North,-999,-999.0,-999.0,36,-99.99,,,-99.99,,2013-02-04 00:11:00,
2013-02-03 18:22:00,45.0,19.0,30.06,North,-999,-999.0,-999.0,36,-99.99,,,-99.99,,2013-02-04 00:22:00,
2013-02-03 18:32:00,43.0,19.0,30.06,North,-999,-999.0,-999.0,37,-99.99,,,-99.99,,2013-02-04 00:32:00,
2013-02-03 18:42:00,43.0,19.0,30.05,North,-999,-999.0,-999.0,38,-99.99,,,-99.99,,2013-02-04 00:42:00,
2013-02-03 18:51:00,43.0,19.0,30.05,North,-999,-999.0,-999.0,38,-99.99,,,-99.99,,2013-02-04 00:51:00,
2013-02-03 19:11:00,42.0,19.0,30.04,North,-999,-999.0,-999.0,39,-99.99,,,-99.99,,2013-02-04 01:11:00,
2013-02-03 19:21:00,42.0,19.0,30.04,North,-999,-999.0,-999.0,39,-99.99,,,-99.99,,2013-02-04 01:21:00,
2013-02-03 19:32:00,41.0,19.0,30.04,North,-999,-999.0,-999.0,40,-99.99,,,-99.99,,2013-02-04 01:32:00,
2013-02-03 19:41:00,41.0,19.0,30.03,North,-999,-999.0,-999.0,40,-99.99,,,-99.99,,2013-02-04 01:41:00,
2013-02-03 19:52:00,41.0,19.0,30.03,North,-999,-999.0,-999.0,40,-99.99,,,-99.99,,2013-02-04 01:52:00,
2013-02-03 20:02:00,42.0,19.0,30.03,North,-999,-999.0,-999.0,39,-99.99,,,-99.99,,2013-02-04 02:02:00,
2013-02-03 20:11:00,42.0,19.0,30.02,North,-999,-999.0,-999.0,39,-99.99,,,-99.99,,2013-02-04 02:11:00,
2013-02-03 20:21:00,42.0,19.0,30.02,North,-999,-999.0,-999.0,39,-99.99,,,-99.99,,2013-02-04 02:21:00,
2013-02-03 20:32:00,43.0,19.0,30.02,North,-999,-999.0,-999.0,38,-99.99,,,-99.99,,2013-02-04 02:32:00,
2013-02-03 20:41:00,43.0,19.0,30.01,North,-999,-999.0,-999.0,38,-99.99,,,-99.99,,2013-02-04 02:41:00,
2013-02-03 20:52:00,43.0,19.0,30.01,North,-999,-999.0,-999.0,38,-99.99,,,-99.99,,2013-02-04 02:52:00,
2013-02-03 21:02:00,43.0,19.0,30.01,North,-999,-999.0,-999.0,38,-99.99,,,-99.99,,2013-02-04 03:02:00,
2013-02-03 21:11:00,43.0,19.0,30.01,North,-999,-999.0,-999.0,38,-99.99,,,-99.99,,2013-02-04 03:11:00,
2013-02-03 21:21:00,43.0,19.0,30.01,North,-999,-999.0,-999.0,38,-99.99,,,-99.99,,2013-02-04 03:21:00,
2013-02-03 21:32:00,43.0,19.0,30.00,North,-999,-999.0,-999.0,38,-99.99,,,-99.99,,2013-02-04 03:32:00,
2013-02-03 21:42:00,44.0,20.0,30.00,North,-999,-999.0,-999.0,38,-99.99,,,-99.99,,2013-02-04 03:42:00,
2013-02-03 21:51:00,44.0,20.0,30.00,North,-999,-999.0,-999.0,38,-99.99,,,-99.99,,2013-02-04 03:51:00,
2013-02-03 22:01:00,44.0,19.0,29.99,North,-999,-999.0,-999.0,37,-99.99,,,-99.99,,2013-02-04 04:01:00,
2013-02-03 22:11:00,44.0,19.0,29.98,North,-999,-999.0,-999.0,37,-99.99,,,-99.99,,2013-02-04 04:11:00,
2013-02-03 22:21:00,44.0,19.0,29.98,North,-999,-999.0,-999.0,37,-99.99,,,-99.99,,2013-02-04 04:21:00,
2013-02-03 22:32:00,44.0,20.0,29.97,North,-999,-999.0,-999.0,37,-99.99,,,-99.99,,2013-02-04 04:32:00,
2013-02-03 22:42:00,45.0,19.0,29.97,North,-999,-999.0,-999.0,36,-99.99,,,-99.99,,2013-02-04 04:42:00,
2013-02-03 22:52:00,45.0,19.0,29.97,North,-999,-999.0,-999.0,36,-99.99,,,-99.99,,2013-02-04 04:52:00,
2013-02-03 23:03:00,45.0,19.0,29.96,North,-999,-999.0,-999.0,36,-99.99,,,-99.99,,2013-02-04 05:03:00,
2013-02-03 23:11:00,45.0,20.0,29.96,North,-999,-999.0,-999.0,36,-99.99,,,-99.99,,2013-02-04 05:11:00,
2013-02-03 23:22:00,45.0,20.0,29.96,North,-999,-999.0,-999.0,36,-99.99,,,-99.99,,2013-02-04 05:22:00,
2013-02-03 23:33:00,45.0,20.0,29.95,North,-999,-999.0,-999.0,36,-99.99,,,-99.99,,2013-02-04 05:33:00,
2013-02-03 23:42:00,45.0,20.0,29.95,North,-999,-999.0,-999.0,36,-99.99,,,-99.99,,2013-02-04 05:42:00,
2013-02-03 23:52:00,45.0,20.0,29.95,North,-999,-999.0,-999.0,36,-99.99,,,-99.99,,2013-02-04 05:52:00,